Terminal Aerodrome Forecast
Issued by NWS Honolulu, HI

Home | Current Version | Previous Version | Text Only | Print | Product List | Glossary On
Versions: 1 2 3 4 5 6 7 8 9 10 11 12 13 14 15 16 17 18 19 20 21 22 23 24 25 26 27 28 29 30 31 32 33 34 35 36 37 38 39 40 41 42 43 44 45 46 47 48 49 50
504
FTPA31 PHFO 242338
TAFHNL
TAF
PHNL 242338Z 2500/2606 05014G22KT P6SM FEW025 SCT045
     FM250400 05011KT P6SM VCSH SCT025 SCT045
     FM251900 04018G26KT P6SM FEW025 SCT045
     FM260500 04012G18KT P6SM FEW025 SCT045=

USA.gov is the U.S. government's official web portal to all federal, state and local government web resources and services.